Manila, Philippines

9:35 AM +08 on August 22, 2017 (GMT +0800)
Ninoy Aquino International

Weather History for RPLL - January, 2017

Change the Weather History Date:

Sunday, January 1, 2017

  Actual Average Record
Temperature  
Mean Temperature 81 °F -  
Max Temperature 89 °F 85 °F 89 °F (2017)
Min Temperature 73 °F 72 °F 69 °F (1998)
Cooling Degree Days 16    
Growing Degree Days 31 (Base 50)    
Moisture  
Dew Point 73 °F    
Average Humidity 78    
Maximum Humidity 100    
Minimum Humidity 50    
Precipitation  
Precipitation 0.00 in 0.01 in - ()
Sea Level Pressure  
Sea Level Pressure 29.92 in    
Wind  
Wind Speed 6 mph ()    
Max Wind Speed 17 mph    
Max Gust Speed 29 mph    
Visibility 5.6 miles    
Events Rain    
Averages and records for this station are not official NWS values.
T = Trace of Precipitation, MM = Missing Value Source: Averaged Metar Reports

Daily Weather History Graph

Daily Weather History Graph

Search for Another Location

Airport or City:

Trip Planner

Search our weather history database for the weather conditions in past years. The results will help you decide how hot, cold, wet, or windy it might be!

Date:

Astronomy

Jan. 01, 2017 Rise Set
Actual Time 6:20 AM +08 5:38 PM +08
Civil Twilight 5:57 AM +08 6:01 PM +08
Nautical Twilight 5:31 AM +08 6:28 PM +08
Astronomical Twilight 5:04 AM +08 6:54 PM +08
Moon 8:24 AM +08 (1/1) 8:16 PM +08 (1/1)
Length of Visible Light 12h 03m
Length of Day
11h 17m
Waxing Crescent, 8% of the Moon is Illuminated
Jan 1
Waxing Crescent
Jan 6
First Quarter
Jan 12
Full
Jan 20
Last Quarter
Jan 28
New

Hourly Weather History & Observations

Time (+08) Temp. Heat Index Dew Point Humidity Pressure Visibility Wind Dir Wind Speed Gust Speed Precip Events Conditions
12:00 AM 77.0 °F - 77.0 °F 100% 29.95 in 5.0 mi ENE 4.6 mph - N/A   Overcast
1:00 AM 77.0 °F - 77.0 °F 100% 29.92 in 3.1 mi Variable 2.3 mph - N/A Rain Light Rain
2:00 AM 76 °F - 76 °F 100% 29.92 in 4 mi NW 2.2 mph - - Rain Light Rain
2:00 AM 77.0 °F - 77.0 °F 100% 29.92 in 3.7 mi NW 3.5 mph - N/A   Mostly Cloudy
3:00 AM 77.0 °F - 77.0 °F 100% 29.89 in 5.0 mi Calm Calm - N/A   Mostly Cloudy
4:00 AM 77.0 °F - 77.0 °F 100% 29.89 in 5.0 mi NNW 3.5 mph - N/A   Mostly Cloudy
5:00 AM 78 °F - 78 °F 98% 29.90 in 5 mi NNW 4.5 mph - -   Haze
5:00 AM 77.0 °F - 77.0 °F 100% 29.89 in 5.0 mi NNW 4.6 mph - N/A   Mostly Cloudy
6:00 AM 77.0 °F - 77.0 °F 100% 29.92 in 3.7 mi North 8.1 mph - N/A   Mostly Cloudy
7:00 AM 77.0 °F - 77.0 °F 100% 29.92 in 5.6 mi NNE 5.8 mph - N/A   Mostly Cloudy
8:00 AM 78 °F - 78 °F 100% 29.97 in 6 mi North 8.9 mph - -   Haze
8:00 AM 78.8 °F - 78.8 °F 100% 29.95 in 5.6 mi North 8.1 mph - N/A   Overcast
9:00 AM 80.6 °F 87.1 °F 77.0 °F 89% 29.98 in 6.2 mi Calm Calm - N/A   Mostly Cloudy
10:00 AM 82.4 °F 89.5 °F 75.2 °F 79% 29.95 in 6.2 mi Variable 5.8 mph - N/A   Mostly Cloudy
11:00 AM 87 °F - 71 °F 50% 29.94 in 6 mi East 15.7 mph - -   Haze
11:00 AM 87.8 °F 93.8 °F 71.6 °F 58% 29.92 in 6.2 mi East 15.0 mph - N/A   Mostly Cloudy
12:00 PM 87.8 °F 92.6 °F 69.8 °F 55% 29.92 in 6.2 mi East 12.7 mph - N/A   Mostly Cloudy
1:00 PM 87.8 °F 91.4 °F 68.0 °F 52% 29.89 in 6.2 mi ENE 17.3 mph - N/A   Partly Cloudy
2:00 PM 73 °F - 68 °F 81% 29.87 in 6 mi East 8.9 mph - -   Haze
2:00 PM 87.8 °F 91.4 °F 68.0 °F 52% 29.86 in 6.2 mi East 17.3 mph 28.8 mph N/A   Mostly Cloudy
3:00 PM 86.0 °F 89.4 °F 68.0 °F 55% 29.86 in 6.2 mi East 13.8 mph - N/A   Mostly Cloudy
4:00 PM 86.0 °F 89.4 °F 68.0 °F 55% 29.86 in 6.2 mi East 11.5 mph - N/A   Mostly Cloudy
5:00 PM 82 °F - 71 °F 62% 29.88 in 6 mi ESE 11.2 mph - -   Mostly Cloudy
5:00 PM 82.4 °F 87.2 °F 71.6 °F 70% 29.89 in 6.2 mi ESE 11.5 mph - N/A   Mostly Cloudy
6:00 PM 80.6 °F 84.6 °F 71.6 °F 74% 29.89 in 6.2 mi ESE 9.2 mph - N/A   Mostly Cloudy
7:00 PM 80.6 °F 84.6 °F 71.6 °F 74% 29.92 in 6.2 mi East 5.8 mph - N/A   Scattered Clouds
8:00 PM 80 °F - 69 °F 62% 29.92 in 6 mi East 6.7 mph - -   Haze
8:00 PM 80.6 °F 83.9 °F 69.8 °F 70% 29.92 in 6.2 mi East 8.1 mph - N/A   Scattered Clouds
9:00 PM 80.6 °F 83.2 °F 68.0 °F 65% 29.95 in 6.2 mi ESE 3.5 mph - N/A   Scattered Clouds
10:00 PM 80.6 °F 83.2 °F 68.0 °F 65% 29.95 in 6.2 mi ENE 8.1 mph - N/A   Mostly Cloudy
11:00 PM 79 °F - 68 °F 61% 29.96 in 6 mi East 4.5 mph - -   Haze
11:00 PM 78.8 °F - 68.0 °F 69% 29.95 in 6.2 mi East 4.6 mph - N/A   Mostly Cloudy